(68229) = 2001 DL30

Discovered at Socorro on 2001-02-17 by LINEAR.

Orbit

Orbit type: Main Belt

Note: WebGL enabled browser required.

epoch2024-03-31.0
epoch JD2460400.5
perihelion date2020-07-05.90407
perihelion JD2459036.40408
argument of perihelion (°)129.05769
ascending node (°)78.30603
inclination (°)1.43864
eccentricity0.1569858
perihelion distance (AU)2.0498186
Tisserand w.r.t. Jupiter3.5
ΔV w.r.t. Earth (km/sec)8.9
semimajor axis (AU)2.4315351
mean anomaly (°)354.59139
mean daily motion (°/day)0.25994610
aphelion distance (AU)2.813
period (years)3.79
P-vector [x]-0.88786692
P-vector [y]-0.42950952
P-vector [z]-0.16496640
Q-vector [x]0.45944304
Q-vector [y]-0.80849228
Q-vector [z]-0.36776667
absolute magnitude16.47
phase slope0.15
uncertainty0
referenceE2024-GI3
observations used802
oppositions20
arc length (days)9927
first opposition used1997
last opposition used2024
residual rms (arc-secs)0.73
perturbers coarse indicatorM-v
perturbers precise indicator003Ek
first observation date used1997-02-03.0
last observation date used2024-04-09.0
computer nameMPCLINUX
JD of orbit computation2456966.729715
perihelion JD uncertainty (days)6.1612E-05
argument of perihelion uncertainty (°)1.8630E-04
ascending node uncertainty (°)1.8593E-04
inclination uncertainty (°)3.5617E-06
eccentricity uncertainty 4.3717E-08
perihelion distance uncertainty (AU)1.0515E-07
Minimum Orbit Intersection Distances (in AU)
for orbit epoch: 2460400.5, reference: E2024-GI3
Mercury1.61019
Venus1.32804
Earth1.04566
Mars0.42478
Jupiter2.14202
Saturn6.36415
Uranus16.256
Neptune27.0109

Observations

808 total observations over interval: 1997 02 03.44749 – 2024 03 19.521391
These data are available for download (format description).

Date (UT) J2000 RA J2000 Dec Magn Location Ref
1997 02 03.44749 08 40 59.08 +20 22 13.4 19.5 V 566 – Haleakala-NEAT/GEODSS MPS 28038
1997 02 03.45601 08 40 58.55 +20 22 15.7 19.4 V 566 – Haleakala-NEAT/GEODSS MPS 28038
1997 02 03.46441 08 40 58.00 +20 22 18.2 19.8 V 566 – Haleakala-NEAT/GEODSS MPS 28038
1997 02 14.12975 08 30 21.99 +21 03 29.8 19.5 V 691 – Steward Observatory, Kitt Peak-Spacewatch MPS 28038
1997 02 14.15258 08 30 20.59 +21 03 35.6 18.6 V 691 – Steward Observatory, Kitt Peak-Spacewatch MPS 28038
1997 02 14.17535 08 30 19.44 +21 03 39.0 19.3 V 691 – Steward Observatory, Kitt Peak-Spacewatch MPS 28038
1998 06 26.40212 20 54 05.48 -18 55 28.4 20.8 V 691 – Steward Observatory, Kitt Peak-Spacewatch MPS 79846
1998 06 26.42406 20 54 04.70 -18 55 33.5 21.5 V 691 – Steward Observatory, Kitt Peak-Spacewatch MPS 79846
1998 06 26.44578 20 54 03.99 -18 55 37.4 21.0 V 691 – Steward Observatory, Kitt Peak-Spacewatch MPS 79846
1998 07 02.45052 20 50 32.23 -19 15 09.3 21.9 V 691 – Steward Observatory, Kitt Peak-Spacewatch MPS 79846
1998 07 02.45624 20 50 31.95 -19 15 10.5 21.6 V 691 – Steward Observatory, Kitt Peak-Spacewatch MPS 79846
1998 07 02.46301 20 50 31.70 -19 15 11.8 21.8 V 691 – Steward Observatory, Kitt Peak-Spacewatch MPS 79846
2001 02 01.35192 11 14 09.46 +07 26 56.1 19.6   704 – Lincoln Laboratory ETS, New Mexico MPS 27032
2001 02 01.36679 11 14 09.02 +07 27 00.1 19.4   704 – Lincoln Laboratory ETS, New Mexico MPS 27032
2001 02 01.38165 11 14 08.80 +07 27 01.7 19.0   704 – Lincoln Laboratory ETS, New Mexico MPS 27032
2001 02 01.39651 11 14 08.34 +07 27 04.1 19.5   704 – Lincoln Laboratory ETS, New Mexico MPS 27032
2001 02 17.30968 11 05 00.97 +08 39 16.3 19.0   704 – Lincoln Laboratory ETS, New Mexico MPS 27032
2001 02 17.32382 11 05 00.27 +08 39 22.3 19.4   704 – Lincoln Laboratory ETS, New Mexico MPS 27032
2001 02 17.33795 11 04 59.59 +08 39 27.0 19.1   704 – Lincoln Laboratory ETS, New Mexico MPS 27032
2001 02 17.35208 11 04 58.89 +08 39 29.7 19.4   704 – Lincoln Laboratory ETS, New Mexico MPS 27032
2001 02 17.36618 11 04 58.16 +08 39 36.2 19.2   704 – Lincoln Laboratory ETS, New Mexico MPS 27032
2001 02 20.36740 11 02 33.94 +08 56 31.4 18.5   704 – Lincoln Laboratory ETS, New Mexico MPS 27032
2001 02 20.38176 11 02 33.15 +08 56 36.2 18.9   704 – Lincoln Laboratory ETS, New Mexico MPS 27032
2001 02 20.39595 11 02 32.45 +08 56 41.1 18.6   704 – Lincoln Laboratory ETS, New Mexico MPS 27032
2001 02 20.41113 11 02 31.78 +08 56 45.2 19.5   704 – Lincoln Laboratory ETS, New Mexico MPS 27032
2001 03 04.24468 10 51 55.99 +10 06 23.9 19.0 V 691 – Steward Observatory, Kitt Peak-Spacewatch MPS 28038
2001 03 04.26602 10 51 54.75 +10 06 31.3 19.0 V 691 – Steward Observatory, Kitt Peak-Spacewatch MPS 28038
2001 03 04.28752 10 51 53.50 +10 06 38.9 18.8 V 691 – Steward Observatory, Kitt Peak-Spacewatch MPS 28038
2001 03 15.26474 10 42 02.55 +11 04 48.3 18.7 R 699 – Lowell Observatory-LONEOS MPS 28038
2001 03 15.27957 10 42 01.66 +11 04 53.7   699 – Lowell Observatory-LONEOS MPS 28038
2001 03 15.29438 10 42 01.00 +11 04 57.2   699 – Lowell Observatory-LONEOS MPS 28038
2001 03 15.30921 10 42 00.17 +11 05 00.7   699 – Lowell Observatory-LONEOS MPS 28038
2001 03 19.24443 10 38 50.73 +11 22 11.2 18.5   704 – Lincoln Laboratory ETS, New Mexico MPS 28038
2001 03 19.25746 10 38 50.12 +11 22 14.8 18.9   704 – Lincoln Laboratory ETS, New Mexico MPS 28038
2001 03 19.26132 10 38 49.92 +11 22 15.4 19.0   704 – Lincoln Laboratory ETS, New Mexico MPS 28038
2001 03 19.27041 10 38 49.53 +11 22 17.8 19.1   704 – Lincoln Laboratory ETS, New Mexico MPS 28038
2001 03 19.27560 10 38 49.33 +11 22 18.9 19.4   704 – Lincoln Laboratory ETS, New Mexico MPS 28038
2001 03 19.28336 10 38 48.81 +11 22 20.6 19.3   704 – Lincoln Laboratory ETS, New Mexico MPS 28038
2001 03 19.28949 10 38 48.58 +11 22 21.5 19.0   704 – Lincoln Laboratory ETS, New Mexico MPS 28038
2001 03 19.29634 10 38 48.24 +11 22 23.4 18.6   704 – Lincoln Laboratory ETS, New Mexico MPS 28038
2001 03 19.30235 10 38 47.99 +11 22 25.2 18.9   704 – Lincoln Laboratory ETS, New Mexico MPS 28038
2001 03 20.32572 10 38 01.97 +11 26 28.8 19.9   608 – Haleakala-AMOS MPS 28038
2001 03 20.33651 10 38 01.47 +11 26 31.6 19.9   608 – Haleakala-AMOS MPS 28038
2001 03 20.34729 10 38 00.93 +11 26 34.1 19.7   608 – Haleakala-AMOS MPS 28038
2001 03 26.13326 10 34 07.80 +11 45 53.0 20.0 R 695 – Kitt Peak MPS 30219
2001 03 26.23766 10 34 03.82 +11 46 10.6   695 – Kitt Peak MPS 30219
2001 03 29.13392 10 32 27.97 +11 53 24.5 19.2 R 699 – Lowell Observatory-LONEOS MPS 28038
2001 03 29.16040 10 32 27.05 +11 53 26.3   699 – Lowell Observatory-LONEOS MPS 28038
2001 03 29.18693 10 32 26.24 +11 53 30.2   699 – Lowell Observatory-LONEOS MPS 28038
2001 03 29.21359 10 32 25.36 +11 53 34.6   699 – Lowell Observatory-LONEOS MPS 28038
2001 04 01.19666 10 31 02.40 +11 59 11.6 18.4   704 – Lincoln Laboratory ETS, New Mexico MPS 28038
2001 04 01.21160 10 31 01.98 +11 59 12.8 19.1   704 – Lincoln Laboratory ETS, New Mexico MPS 28038
2001 04 01.22611 10 31 01.60 +11 59 15.1 19.3   704 – Lincoln Laboratory ETS, New Mexico MPS 28038
2001 04 01.24039 10 31 01.22 +11 59 15.3 19.1   704 – Lincoln Laboratory ETS, New Mexico MPS 28038
2001 04 01.25463 10 31 00.86 +11 59 16.9 18.9   704 – Lincoln Laboratory ETS, New Mexico MPS 28038
2002 08 08.44721 22 15 53.69 -13 04 50.2 20.0   644 – Palomar Mountain/NEAT MPS 81413
2002 08 08.45811 22 15 53.10 -13 04 53.2 20.2   644 – Palomar Mountain/NEAT MPS 81413
2002 08 08.46909 22 15 52.51 -13 04 57.1 19.8   644 – Palomar Mountain/NEAT MPS 81413
2002 08 18.27488 22 06 55.70 -13 57 52.0 20.0   644 – Palomar Mountain/NEAT MPS 81413
2002 08 18.35130 22 06 51.19 -13 58 16.9 19.6   644 – Palomar Mountain/NEAT MPS 81413
2002 08 18.41269 22 06 47.61 -13 58 36.6 20.1   644 – Palomar Mountain/NEAT MPS 81413
2002 08 18.41445 22 06 47.48 -13 58 37.4 19.6   644 – Palomar Mountain/NEAT MPS 81413
2002 08 18.42334 22 06 46.99 -13 58 39.7 20.1   644 – Palomar Mountain/NEAT MPS 81413
2002 08 18.43413 22 06 46.36 -13 58 42.8 20.5   644 – Palomar Mountain/NEAT MPS 81413
2002 08 26.17451 21 59 29.43 -14 38 51.0 20.4   644 – Palomar Mountain/NEAT MPS 81413
2002 08 26.24254 21 59 25.53 -14 39 11.0 19.9   644 – Palomar Mountain/NEAT MPS 81413
2002 08 26.31397 21 59 21.40 -14 39 32.1 19.7   644 – Palomar Mountain/NEAT MPS 81413
2003 11 19.18336 03 58 41.58 +19 46 49.1 20.2 V 691 – Steward Observatory, Kitt Peak-Spacewatch MPS 91554
2003 11 19.21073 03 58 39.81 +19 46 45.0 20.5 V 691 – Steward Observatory, Kitt Peak-Spacewatch MPS 91554
2003 11 19.23791 03 58 38.07 +19 46 40.6 20.7 V 691 – Steward Observatory, Kitt Peak-Spacewatch MPS 91554
2003 12 21.09008 03 28 47.80 +18 27 04.8 20.8 V 691 – Steward Observatory, Kitt Peak-Spacewatch MPS 95556
2003 12 21.11956 03 28 46.59 +18 27 02.1 21.0 V 691 – Steward Observatory, Kitt Peak-Spacewatch MPS 95556
2003 12 21.15981 03 28 44.93 +18 26 58.2 21.1 V 691 – Steward Observatory, Kitt Peak-Spacewatch MPS 95556
2005 03 09.41130 13 40 54.91 -07 58 13.8 18.6 R G96 – Mt. Lemmon Survey MPS 128669
2005 03 09.41890 13 40 54.80 -07 58 13.0 18.4 R G96 – Mt. Lemmon Survey MPS 128669
2005 03 09.42646 13 40 54.69 -07 58 12.5 18.4 R G96 – Mt. Lemmon Survey MPS 128669
2005 03 09.43406 13 40 54.57 -07 58 11.6 18.6 R G96 – Mt. Lemmon Survey MPS 128669
2005 03 10.40615 13 40 41.62 -07 56 24.9 19.0 R 699 – Lowell Observatory-LONEOS MPS 128669
2005 03 10.42561 13 40 41.29 -07 56 22.5   699 – Lowell Observatory-LONEOS MPS 128669
2005 03 10.44509 13 40 40.98 -07 56 20.4   699 – Lowell Observatory-LONEOS MPS 128669
2005 03 10.46458 13 40 40.64 -07 56 17.9   699 – Lowell Observatory-LONEOS MPS 128669
2005 03 11.47590 13 40 24.96 -07 54 16.9 19.4 V 691 – Steward Observatory, Kitt Peak-Spacewatch MPS 128669
2005 03 11.48858 13 40 24.71 -07 54 15.1 19.4 V 691 – Steward Observatory, Kitt Peak-Spacewatch MPS 128669
2005 03 11.50138 13 40 24.46 -07 54 13.7 19.4 V 691 – Steward Observatory, Kitt Peak-Spacewatch MPS 128669
2005 04 01.26712 13 28 38.47 -06 41 27.1 18.2 R 699 – Lowell Observatory-LONEOS MPS 130493
2005 04 01.29145 13 28 37.19 -06 41 20.7   699 – Lowell Observatory-LONEOS MPS 130493
2005 04 01.31578 13 28 36.01 -06 41 13.1   699 – Lowell Observatory-LONEOS MPS 130493
